This is the latest recevied weather packets stored in our database for station/object K7KRJ-10. If no packets are shown the sender has not sent any weather packets the latest 10 day(s).
| Time | Temp. | Humidity | Pressure | Rain* | Wind** | Luminosity | Snow |
|---|---|---|---|---|---|---|---|
| 1777078405 | 30° C | 13% | 1004.8 hPa | 0 mm | - | 120 W/m² | - |
| 1777077503 | 30° C | 13% | 1004.7 hPa | 0 mm | - | 180 W/m² | - |
| 1777076599 | 30° C | 12% | 1004.9 hPa | 0 mm | - | 238 W/m² | - |
| 1777075698 | 30° C | 12% | 1004.8 hPa | 0 mm | - | 325 W/m² | - |
| 1777074797 | 30° C | 12% | 1005.1 hPa | 0 mm | - | 387 W/m² | - |
| 1777073897 | 30.56° C | 12% | 1005.2 hPa | 0 mm | - | 430 W/m² | - |
| 1777072996 | 30° C | 12% | 1005.4 hPa | 0 mm | - | 415 W/m² | - |
| 1777072097 | 30° C | 11% | 1005.5 hPa | 0 mm | - | 467 W/m² | - |
| 1777071195 | 30.56° C | 11% | 1005.3 hPa | 0 mm | - | 622 W/m² | - |
| 1777070294 | 30° C | 12% | 1005.6 hPa | 0 mm | - | 705 W/m² | - |
| 1777069389 | 30° C | 12% | 1005.7 hPa | 0 mm | - | 668 W/m² | - |
| 1777068485 | 30° C | 12% | 1005.9 hPa | 0 mm | - | 645 W/m² | - |
| 1777067584 | 30° C | 12% | 1005.9 hPa | 0 mm | - | 836 W/m² | - |
| 1777066680 | 30° C | 12% | 1006.5 hPa | 0 mm | - | 866 W/m² | - |
| 1777065777 | 30° C | 12% | 1006.9 hPa | 0 mm | - | 910 W/m² | - |
| 1777064876 | 29.44° C | 12% | 1007.1 hPa | 0 mm | - | 926 W/m² | - |
| 1777063975 | 29.44° C | 12% | 1007 hPa | 0 mm | - | 958 W/m² | - |
| 1777063074 | 29.44° C | 12% | 1007.3 hPa | 0 mm | - | 1001 W/m² | - |
| 1777062171 | 28.89° C | 12% | 1007.2 hPa | 0 mm | - | 1008 W/m² | - |
| 1777061267 | 28.89° C | 12% | 1007.3 hPa | 0 mm | - | 1027 W/m² | - |
| 1777060364 | 28.89° C | 12% | 1007.7 hPa | 0 mm | - | 1036 W/m² | - |
| 1777059460 | 28.33° C | 13% | 1008.1 hPa | 0 mm | - | 1046 W/m² | - |
| 1777058558 | 28.33° C | 14% | 1008.3 hPa | 0 mm | - | 966 W/m² | - |
| 1777057659 | 27.78° C | 14% | 1008.5 hPa | 0 mm | - | 1049 W/m² | - |
| 1777056756 | 27.78° C | 14% | 1008.9 hPa | 0 mm | - | 1055 W/m² | - |
* Rain latest hour (hover to see other rain measurements)
** Current wind speed in m/s (hover to see current wind gust speed)